Location: Burera
(21.3780°N, 81.9534°E)
Time: 01:28:45
(UTC+00:00)

Cosmos 1455 - Pass Details

Date: 13 August 2020
Orbit: 498 x 523 km, 82.5° (Epoch: 22 September)

Event Time Altitude Azimuth Distance (km) Brightness Sun altitude
Exits shadow 23:11:18 13° 201° (SSW) 1,580 4.3 -13.8°
Maximum altitude 23:14:37 50° 276° (W) 666 2.4 -13.1°
Drops below altitude 10° 23:18:22 10° 353° (N) 1,758 5.1 -12.3°
Sets 23:20:34 0° 358° (N) 2,649 6.1 -11.8°
